TimePDT,TemperatureF,Dew PointF,Humidity,Sea Level PressureIn,VisibilityMPH,Wind Direction,Wind SpeedMPH,Gust SpeedMPH,PrecipitationIn,Events,Conditions,WindDirDegrees,DateUTC
12:53 AM,64.9,57.9,78,29.94,9.0,West,3.5,-,N/A,,Mostly Cloudy,260,2012-10-06 07:53:00
1:53 AM,64.0,57.0,78,29.94,9.0,Calm,Calm,-,N/A,,Scattered Clouds,0,2012-10-06 08:53:00
2:53 AM,63.0,57.0,81,29.92,9.0,Calm,Calm,-,N/A,,Partly Cloudy,0,2012-10-06 09:53:00
3:53 AM,62.1,57.0,84,29.91,7.0,ENE,3.5,-,N/A,,Partly Cloudy,60,2012-10-06 10:53:00
4:53 AM,61.0,57.0,87,29.92,5.0,Calm,Calm,-,N/A,,Scattered Clouds,0,2012-10-06 11:53:00
5:53 AM,63.0,57.9,84,29.92,6.0,Calm,Calm,-,N/A,,Haze,0,2012-10-06 12:53:00
6:53 AM,60.8,57.2,88,29.96,4.0,Calm,Calm,-,N/A,,Mostly Cloudy,0,2012-10-06 13:53:00
7:53 AM,63.0,57.9,84,29.94,3.0,Calm,Calm,-,N/A,,Haze,0,2012-10-06 14:53:00
8:53 AM,66.0,57.9,75,29.95,3.0,Calm,Calm,-,N/A,,Haze,0,2012-10-06 15:53:00
9:53 AM,69.1,57.0,65,29.95,3.0,Calm,Calm,-,N/A,,Haze,0,2012-10-06 16:53:00
10:53 AM,73.0,57.0,57,29.93,3.0,Calm,Calm,-,N/A,,Haze,0,2012-10-06 17:53:00
11:53 AM,75.9,57.0,52,29.92,3.0,Calm,Calm,-,N/A,,Haze,0,2012-10-06 18:53:00
12:53 PM,78.1,54.0,43,29.89,4.0,SW,6.9,-,N/A,,Haze,220,2012-10-06 19:53:00
1:53 PM,82.0,53.1,37,29.86,9.0,West,8.1,-,N/A,,Mostly Cloudy,260,2012-10-06 20:53:00
2:53 PM,81.0,53.1,38,29.85,10.0,West,6.9,-,N/A,,Mostly Cloudy,260,2012-10-06 21:53:00
3:53 PM,82.0,54.0,38,29.84,10.0,WNW,11.5,-,N/A,,Overcast,290,2012-10-06 22:53:00
4:53 PM,81.0,55.9,42,29.83,10.0,WSW,8.1,-,N/A,,Overcast,250,2012-10-06 23:53:00
5:53 PM,77.0,60.1,56,29.84,10.0,WSW,10.4,-,N/A,,Overcast,240,2012-10-07 00:53:00
6:53 PM,73.0,59.0,61,29.86,10.0,West,6.9,-,N/A,,Mostly Cloudy,260,2012-10-07 01:53:00
7:53 PM,71.1,59.0,66,29.88,10.0,West,8.1,-,N/A,,Mostly Cloudy,270,2012-10-07 02:53:00
8:53 PM,69.1,59.0,70,29.88,10.0,West,4.6,-,N/A,,Mostly Cloudy,270,2012-10-07 03:53:00
9:53 PM,69.1,59.0,70,29.89,10.0,WSW,5.8,-,N/A,,Mostly Cloudy,240,2012-10-07 04:53:00
10:37 PM,66.2,57.2,73,29.93,10.0,WSW,8.1,-,N/A,,Mostly Cloudy,250,2012-10-07 05:37:00
10:53 PM,68.0,59.0,73,29.90,10.0,West,4.6,-,N/A,,Mostly Cloudy,280,2012-10-07 05:53:00
11:53 PM,66.9,59.0,76,29.89,10.0,West,4.6,-,N/A,,Mostly Cloudy,270,2012-10-07 06:53:00